铱星星座 174星 (IRIDIUM 174)

导读 | 星芒AI

IRIDIUM 174 是美国 Iridium 公司运营的 Iridium 卫星通信系统中的一颗低轨卫星,属于第二代 Iridium NEXT 系列。该卫星运行在约 780 公里的极地轨道上,提供全球范围的语音和数据通信服务。IRIDIUM 174 与其他 65 颗同类卫星共同构建了覆盖全球的移动通信网络,广泛应用于航空、航海、应急通信和军事等领域。其先进设计支持高速数据传输和抗干扰能力,提升了卫星通信的可靠性和效率。

基本信息
目录编号:
56728
目录名称:
IRIDIUM 174
国际标识:
2023-068U
轨道中心:
EARTH
卫星名称:
铱星星座 174星
卫星全名:
铱星星座 174星 (IRIDIUM 174)
卫星状态:
在轨 (已飞行893 天)
发射日期:
2023-05-20 UTC
国别 :
美国 (US)
星等 :
--
轨道信息
数据来源 国际轨道数据 AOE轨道数据
星历时间 2025-10-28T18:49:16+0800
23小时前
查看轨道信息
2025-10-25T17:00:00+0800
4天前
查看轨道信息
半长轴 7032.022km 7031.954km
偏心率 0.0002804 0.0002721
轨道倾角 86.606° 86.608°
近地点辐角 83.236° 85.709°
升交点赤经 90.583° 91.871°
平近点角 276.917° 182.512°
近地点 651.915km 651.905km
远地点 655.859km 655.733km
周期 97.809分钟 97.808分钟
每日圈数 14.722532 14.722746
详细信息
平衡模式:
三轴稳定
覆盖范围:
全球
运营商:
铱星通信公司
运营商所在国:
美国
制造商(研发单位):
阿莱尼亚宇航公司
制造商所在国:
意大利
使用方式:
暂无
卫星简介
铱星(Iridium)是由共66个运作中的通信卫星组成的卫星通信系统。这个系统原本规划77个通信卫星,所以用原子序数为77的铱元素来命名。铱卫星允许人们使用手持型电子设备进行全球性的语音及数据通讯。该卫星仍在工作。
2D轨道图
3D轨道图
轨道高度分析图
轨道倾角分析图
轨道综合分析图
查看轨道综合分析图